When you browse on this site, cookies collect data to enhance your experience and personalize the content and advertising you see.
Visit our Privacy Policy to learn more. By continuing to use the site, you agree to this use of cookies and data.
  • en Suisse
  • Liste des pays
  • À 7 jours
  • Température de l'eau
  • Carte météo
  • Widgets météo
  • user-avatar
    Se connecter

    Météo par heure à Saidpur

    Ce jour, 23 Janvier, Jeudi

    Heure Température Précipitation Vent Pression Humidité
    00:00 +16°C° 0 mm 2 m/s 760 mmHg 47%
    01:00 +16°C° 0 mm 2 m/s 759 mmHg 48%
    02:00 +15°C° 0 mm 2 m/s 759 mmHg 50%
    03:00 +15°C° 0 mm 2 m/s 759 mmHg 51%
    04:00 +14°C° 0 mm 2 m/s 759 mmHg 53%
    05:00 +14°C° 0 mm 2 m/s 759 mmHg 54%
    06:00 +13°C° 0 mm 2 m/s 759 mmHg 58%
    07:00 +14°C° 0 mm 2 m/s 760 mmHg 55%
    08:00 +16°C° 0 mm 2 m/s 760 mmHg 51%
    09:00 +17°C° 0 mm 2 m/s 761 mmHg 48%
    10:00 +19°C° 0 mm 2 m/s 760 mmHg 43%
    11:00 +20°C° 0 mm 2 m/s 760 mmHg 39%
    12:00 +22°C° 0 mm 3 m/s 760 mmHg 33%
    13:00 +24°C° 0 mm 3 m/s 759 mmHg 32%
    14:00 +23°C° 0 mm 4 m/s 758 mmHg 31%
    15:00 +25°C° 0 mm 4 m/s 757 mmHg 30%
    16:00 +23°C° 0 mm 4 m/s 757 mmHg 33%
    17:00 +21°C° 0 mm 3 m/s 757 mmHg 37%
    18:00 +20°C° 0 mm 2 m/s 758 mmHg 41%
    19:00 +19°C° 0 mm 2 m/s 758 mmHg 44%
    20:00 +18°C° 0 mm 3 m/s 759 mmHg 47%
    21:00 +17°C° 0 mm 3 m/s 759 mmHg 50%
    22:00 +17°C° 0 mm 2 m/s 759 mmHg 52%
    23:00 +16°C° 0 mm 2 m/s 759 mmHg 54%

    Demain, 24 Janvier, Vendredi

    Heure Température Précipitation Vent Pression Humidité
    00:00 +16°C° 0 mm 2 m/s 759 mmHg 56%
    01:00 +15°C° 0 mm 2 m/s 759 mmHg 57%
    02:00 +15°C° 0 mm 2 m/s 758 mmHg 59%
    03:00 +14°C° 0 mm 2 m/s 758 mmHg 61%
    04:00 +14°C° 0 mm 2 m/s 758 mmHg 63%
    05:00 +13°C° 0 mm 2 m/s 758 mmHg 65%
    06:00 +13°C° 0 mm 2 m/s 758 mmHg 67%
    07:00 +14°C° 0 mm 2 m/s 759 mmHg 64%
    08:00 +15°C° 0 mm 2 m/s 760 mmHg 60%
    09:00 +16°C° 0 mm 2 m/s 760 mmHg 57%
    10:00 +18°C° 0 mm 2 m/s 760 mmHg 51%
    11:00 +19°C° 0 mm 2 m/s 760 mmHg 46%
    12:00 +21°C° 0 mm 2 m/s 759 mmHg 40%
    13:00 +21°C° 0 mm 2 m/s 759 mmHg 37%
    14:00 +23°C° 0 mm 2 m/s 758 mmHg 34%
    15:00 +23°C° 0 mm 2 m/s 757 mmHg 30%
    16:00 +21°C° 0 mm 2 m/s 757 mmHg 32%
    17:00 +20°C° 0 mm 2 m/s 757 mmHg 35%
    18:00 +20°C° 0 mm 1 m/s 757 mmHg 37%
    19:00 +20°C° 0 mm 1 m/s 758 mmHg 39%
    20:00 +19°C° 0 mm 1 m/s 758 mmHg 41%
    21:00 +18°C° 0 mm 1 m/s 759 mmHg 43%
    22:00 +18°C° 0 mm 1 m/s 759 mmHg 45%
    23:00 +16°C° 0 mm 1 m/s 759 mmHg 48%

    Après-demain, 25 Janvier, Samedi

    Heure Température Précipitation Vent Pression Humidité
    00:00 +16°C° 0 mm 1 m/s 759 mmHg 50%
    01:00 +15°C° 0 mm 2 m/s 758 mmHg 53%
    02:00 +15°C° 0 mm 2 m/s 758 mmHg 56%
    03:00 +14°C° 0 mm 2 m/s 758 mmHg 58%
    04:00 +14°C° 0 mm 2 m/s 758 mmHg 61%
    05:00 +14°C° 0 mm 2 m/s 758 mmHg 65%
    06:00 +14°C° 0 mm 2 m/s 758 mmHg 68%
    07:00 +15°C° 0 mm 2 m/s 759 mmHg 64%
    08:00 +16°C° 0 mm 2 m/s 759 mmHg 60%
    09:00 +18°C° 0 mm 2 m/s 760 mmHg 56%
    10:00 +19°C° 0 mm 2 m/s 760 mmHg 50%
    11:00 +21°C° 0 mm 2 m/s 759 mmHg 44%
    12:00 +24°C° 0 mm 2 m/s 759 mmHg 38%
    13:00 +24°C° 0 mm 2 m/s 758 mmHg 36%
    14:00 +25°C° 0 mm 1 m/s 757 mmHg 33%
    15:00 +23°C° 0 mm 0 m/s 756 mmHg 31%
    16:00 +22°C° 0 mm 0 m/s 756 mmHg 33%
    17:00 +21°C° 0 mm 0 m/s 756 mmHg 35%
    18:00 +20°C° 0 mm 0 m/s 756 mmHg 38%
    19:00 +21°C° 0 mm 1 m/s 757 mmHg 40%
    20:00 +20°C° 0 mm 1 m/s 757 mmHg 43%
    21:00 +20°C° 0 mm 1 m/s 758 mmHg 45%
    22:00 +18°C° 0 mm 2 m/s 758 mmHg 47%
    23:00 +17°C° 0 mm 2 m/s 757 mmHg 50%

    26 Janvier, Dimanche

    Heure Température Précipitation Vent Pression Humidité
    00:00 +17°C° 0 mm 2 m/s 757 mmHg 53%
    01:00 +16°C° 0 mm 2 m/s 757 mmHg 55%
    02:00 +16°C° 0 mm 2 m/s 757 mmHg 57%
    03:00 +15°C° 0 mm 2 m/s 756 mmHg 59%
    04:00 +15°C° 0 mm 2 m/s 756 mmHg 60%
    05:00 +15°C° 0 mm 2 m/s 756 mmHg 62%
    06:00 +14°C° 0 mm 2 m/s 756 mmHg 63%
    07:00 +15°C° 0 mm 2 m/s 757 mmHg 59%
    08:00 +17°C° 0 mm 2 m/s 758 mmHg 56%
    09:00 +18°C° 0 mm 2 m/s 758 mmHg 52%
    10:00 +21°C° 0 mm 1 m/s 758 mmHg 47%
    11:00 +22°C° 0 mm 1 m/s 758 mmHg 42%
    12:00 +24°C° 0 mm 1 m/s 758 mmHg 38%
    13:00 +25°C° 0 mm 1 m/s 757 mmHg 36%
    14:00 +25°C° 0 mm 1 m/s 756 mmHg 34%
    15:00 +25°C° 0 mm 1 m/s 755 mmHg 32%
    16:00 +24°C° 0 mm 1 m/s 755 mmHg 34%
    17:00 +23°C° 0 mm 1 m/s 755 mmHg 36%
    18:00 +21°C° 0 mm 2 m/s 755 mmHg 38%
    19:00 +21°C° 0 mm 2 m/s 755 mmHg 41%
    20:00 +20°C° 0 mm 2 m/s 756 mmHg 44%
    21:00 +19°C° 0 mm 3 m/s 756 mmHg 48%
    22:00 +18°C° 0 mm 3 m/s 756 mmHg 51%
    23:00 +18°C° 0 mm 3 m/s 756 mmHg 54%

    27 Janvier, Lundi

    Heure Température Précipitation Vent Pression Humidité
    00:00 +17°C° 0 mm 3 m/s 756 mmHg 57%
    01:00 +17°C° 0 mm 2 m/s 756 mmHg 59%
    02:00 +16°C° 0 mm 2 m/s 755 mmHg 61%
    03:00 +16°C° 0 mm 2 m/s 755 mmHg 63%
    04:00 +15°C° 0 mm 2 m/s 755 mmHg 65%
    05:00 +15°C° 0 mm 2 m/s 755 mmHg 66%
    06:00 +15°C° 0 mm 2 m/s 756 mmHg 68%
    07:00 +16°C° 0 mm 2 m/s 756 mmHg 64%
    08:00 +17°C° 0 mm 2 m/s 757 mmHg 60%
    09:00 +18°C° 0 mm 2 m/s 758 mmHg 55%
    10:00 +20°C° 0 mm 2 m/s 757 mmHg 50%
    11:00 +23°C° 0 mm 2 m/s 757 mmHg 44%
    12:00 +25°C° 0 mm 2 m/s 757 mmHg 38%
    13:00 +25°C° 0 mm 2 m/s 756 mmHg 36%
    14:00 +25°C° 0 mm 2 m/s 756 mmHg 34%
    15:00 +26°C° 0 mm 2 m/s 755 mmHg 32%
    16:00 +25°C° 0 mm 2 m/s 755 mmHg 35%
    17:00 +24°C° 0 mm 2 m/s 755 mmHg 37%
    18:00 +23°C° 0 mm 1 m/s 755 mmHg 39%
    19:00 +21°C° 0 mm 2 m/s 755 mmHg 41%
    20:00 +20°C° 0 mm 2 m/s 756 mmHg 44%
    21:00 +19°C° 0 mm 2 m/s 756 mmHg 47%
    22:00 +19°C° 0 mm 2 m/s 756 mmHg 50%
    23:00 +18°C° 0 mm 2 m/s 756 mmHg 53%

    28 Janvier, Mardi

    Heure Température Précipitation Vent Pression Humidité
    00:00 +18°C° 0 mm 2 m/s 756 mmHg 56%
    01:00 +17°C° 0 mm 2 m/s 756 mmHg 58%
    02:00 +17°C° 0 mm 2 m/s 756 mmHg 60%
    03:00 +16°C° 0 mm 2 m/s 756 mmHg 61%
    04:00 +16°C° 0 mm 1 m/s 756 mmHg 63%
    05:00 +15°C° 0 mm 1 m/s 756 mmHg 64%
    06:00 +15°C° 0 mm 1 m/s 756 mmHg 66%
    07:00 +18°C° 0 mm 1 m/s 757 mmHg 61%
    08:00 +19°C° 0 mm 1 m/s 758 mmHg 56%
    09:00 +20°C° 0 mm 1 m/s 758 mmHg 51%
    10:00 +22°C° 0 mm 1 m/s 758 mmHg 46%
    11:00 +24°C° 0 mm 1 m/s 758 mmHg 41%
    12:00 +24°C° 0 mm 0 m/s 758 mmHg 36%
    13:00 +24°C° 0 mm 0 m/s 758 mmHg 34%
    14:00 +24°C° 0 mm 0 m/s 757 mmHg 32%
    15:00 +25°C° 0 mm 0 m/s 756 mmHg 30%
    16:00 +24°C° 0 mm 0 m/s 756 mmHg 32%
    17:00 +23°C° 0 mm 0 m/s 756 mmHg 34%
    18:00 +22°C° 0 mm 0 m/s 756 mmHg 36%
    19:00 +21°C° 0 mm 0 m/s 756 mmHg 38%
    20:00 +20°C° 0 mm 0 m/s 757 mmHg 39%
    21:00 +20°C° 0 mm 0 m/s 758 mmHg 41%
    22:00 +22°C° 0 mm 1 m/s 758 mmHg 42%
    23:00 +21°C° 0 mm 1 m/s 758 mmHg 42%
    Voir plus